Flag for U.S.A. Weather past 2 weeks in Lawrence, Kansas, U.S.A.

Now
62 °F

Light rain. Overcast.


Feels Like: 62 °F
Forecast: 60 / 78 °F
Wind: 7 mph from North

Location: Lawrence Municipal Airport

Current Time: May 26, 2015 at 1:37:08 AM

Latest Report: May 26, 2015 at 12:52 AM


Visibility: 10 mi

Pressure: 29.84 "Hg

Humidity: 93%

Dew point: 60 °F

Location of LawrenceLocation

Historic Weather in Lawrence — Graph

°F

Lawrence temperature yesterday

Maximum temperature yesterday: 81 °F (at 3:52 PM)
Minimum temperature yesterday: 60 °F (at 4:52 AM)
Average temperature yesterday: 70 °F

Past Weeks' High & Low Weather Summary

 TemperatureHumidityPressure
High81 °F (May 16, 2:52 PM)97% (May 14, 7:52 AM)30.34 "Hg (May 14, 7:52 AM)
Low40 °F (May 12, 4:52 AM)32% (May 12, 3:52 PM)29.68 "Hg (May 17, 5:52 AM)
Average61 °F75%30.05 "Hg
* Reported May 11 12:52 AM — May 26 12:02 AM, Lawrence, Weather by CustomWeather, © 2015

Note: Actual official high and low records may vary slightly from our data, if they occured in-between our weather recording intervals... More about our weather records

Advertising

Lawrence weather history for previous 24 hours

 ConditionsComfort  
Time TempWeatherWind HumidityBarometerVisibility
12:02 AM
Tue, May 26
64 °FThundershowers. Mostly cloudy.No wind84%29.89 "Hg3 mi
11:52 PM
Mon, May 25
65 °FThunderstorms. Mostly cloudy.7 mph78%29.86 "Hg10 mi
10:52 PM70 °FClear.5 mph84%29.77 "Hg10 mi
9:52 PM72 °FClear.8 mph78%29.79 "Hg10 mi
8:52 PM73 °FSunny.6 mph79%29.81 "Hg10 mi
7:52 PM76 °FSunny.9 mph67%29.80 "Hg10 mi
6:52 PM78 °FSunny.15 mph62%29.77 "Hg10 mi
5:52 PM80 °FPartly sunny.17 mph56%29.77 "Hg10 mi
4:52 PM80 °FScattered clouds.15 mph58%29.78 "Hg10 mi
3:52 PM81 °FPassing clouds.16 mph58%29.81 "Hg10 mi
2:52 PM79 °FBroken clouds.25 mph62%29.83 "Hg10 mi
1:52 PM76 °FCloudy.18 mph69%29.85 "Hg10 mi
12:52 PM74 °FMostly cloudy.13 mph71%29.87 "Hg10 mi
11:52 AM75 °FScattered clouds.16 mph66%29.85 "Hg10 mi
10:52 AM72 °FSunny.13 mph71%29.85 "Hg10 mi
9:52 AM68 °FSunny.12 mph78%29.86 "Hg10 mi
8:52 AM64 °FSunny.13 mph87%29.86 "Hg10 mi
7:52 AM61 °FLight rain. Fog.3 mph93%29.95 "Hg5 mi
6:52 AM61 °FPassing clouds.3 mph93%29.90 "Hg10 mi
5:52 AM61 °FPassing clouds.7 mph90%29.86 "Hg10 mi
4:52 AM60 °FClear.7 mph93%29.84 "Hg10 mi
3:52 AM62 °FPassing clouds.8 mph93%29.84 "Hg10 mi
2:52 AM62 °FOvercast.3 mph93%29.82 "Hg10 mi
1:52 AM63 °FLight rain. Overcast.5 mph90%29.82 "Hg9 mi
Weather by CustomWeather, © 2015

See weather overviewHow to use our weather pages